This demonstration page uses our WeatherBlox Daily Observations layout. Learn more.

Hourly Observations for May 15, 2019

Temp ( °F °C ) Dew Point ( °F °C ) Humidity (%) Winds ( mph kmh ) Pressure ( in mb ) Visibility ( mi km ) Precip ( " mm )
12:15 am 00:15 Partly Cloudy 48 9 45 7 87 87 Calm 30.03 1017 10 16.09344 0 0
12:35 am 00:35 Partly Cloudy 48 9 45 7 87 87 Calm 30.03 1017 10 16.09344 0 0
12:55 am 00:55 Clear 45 7 43 6 93 93 WNW 5 7 30.03 1017 10 16.09344 0 0
1:15 am 01:15 Clear 46 8 43 6 87 87 NW 6 9 30.03 1017 10 16.09344 0 0
1:35 am 01:35 Clear 50 10 45 7 82 82 NW 5 7 30 1016 10 16.09344 0 0
1:55 am 01:55 Clear 50 10 43 6 76 76 NNW 3 6 30 1016 10 16.09344 0 0
2:15 am 02:15 Clear 48 9 43 6 82 82 NW 5 7 30.03 1017 10 16.09344 0 0
2:35 am 02:35 Clear 48 9 43 6 82 82 NNW 5 7 30.03 1017 10 16.09344 0 0
2:55 am 02:55 Clear 46 8 43 6 87 87 NW 6 9 30.03 1017 10 16.09344 0 0
3:15 am 03:15 Clear 46 8 43 6 87 87 NW 7 11 30 1016 10 16.09344 0 0
3:35 am 03:35 Clear 45 7 43 6 93 93 WNW 5 7 30 1016 10 16.09344 0 0
3:55 am 03:55 Clear 45 7 43 6 93 93 NW 3 6 30 1016 10 16.09344 0 0
4:15 am 04:15 Clear 43 6 43 6 100 100 Calm 30 1016 10 16.09344 0 0
4:35 am 04:35 Clear 43 6 43 6 100 100 Calm 30 1016 10 16.09344 0 0
4:55 am 04:55 Clear 43 6 43 6 100 100 W 3 6 30 1016 10 16.09344 0 0
5:15 am 05:15 Clear 43 6 43 6 100 100 Calm 30 1016 10 16.09344 0 0
5:35 am 05:35 Clear 45 7 43 6 93 93 Calm 30 1016 10 16.09344 0 0
5:55 am 05:55 Clear 43 6 41 5 93 93 Calm 30 1016 10 16.09344 0 0
6:15 am 06:15 Sunny 43 6 43 6 100 100 Calm 30 1016 10 16.09344 0 0
6:35 am 06:35 Sunny 41 5 41 5 100 100 Calm 30 1016 10 16.09344 0 0
6:55 am 06:55 Sunny 43 6 43 6 100 100 Calm 30 1016 10 16.09344 0 0
7:15 am 07:15 Sunny 46 8 45 7 93 93 Calm 30.03 1017 10 16.09344 0 0
7:35 am 07:35 Sunny 48 9 45 7 87 87 Calm 30.03 1017 10 16.09344 0 0
7:55 am 07:55 Sunny 52 11 45 7 77 77 WNW 3 6 30 1016 10 16.09344 0 0
8:15 am 08:15 Sunny 54 12 45 7 72 72 Calm 30 1016 10 16.09344 0 0
8:35 am 08:35 Sunny 55 13 45 7 67 67 NNW 8 13 30 1016 10 16.09344 0 0
8:55 am 08:55 Sunny 59 15 46 8 63 63 NW 9 15 30 1016 10 16.09344 0 0
9:15 am 09:15 Sunny 59 15 46 8 63 63 NNW 8 13 30 1016 10 16.09344 0 0
9:30 am 09:30 Sunny 61 16 45 7 55 55 NNW 8 13 30 1016 10 16.09344 0 0
9:55 am 09:55 Sunny 61 16 46 8 59 59 NW 9 15 30 1016 10 16.09344 0 0
10:15 am 10:15 Sunny 63 17 46 8 56 56 N 8 13 30 1016 10 16.09344 0 0
10:35 am 10:35 Sunny 63 17 46 8 56 56 N 7 11 30 1016 10 16.09344 0 0
10:55 am 10:55 Sunny 63 17 45 7 52 52 N 9 15 30 1016 10 16.09344 0 0
11:15 am 11:15 Sunny 64 18 46 8 52 52 NW 6 9 30 1016 10 16.09344 0 0
11:35 am 11:35 Sunny 64 18 46 8 52 52 N 5 7 29.97 1015 10 16.09344 0 0
11:55 am 11:55 Sunny 68 20 48 9 49 49 W 9 15 29.97 1015 10 16.09344 0 0
12:15 pm 12:15 Sunny 68 20 46 8 46 46 NW 9 15 29.97 1015 10 16.09344 0 0
12:35 pm 12:35 Sunny 68 20 46 8 46 46 W 8 13 29.97 1015 10 16.09344 0 0
12:55 pm 12:55 Sunny 70 21 46 8 43 43 NW 13 20 29.94 1014 10 16.09344 0 0
1:15 pm 13:15 Sunny 70 21 46 8 43 43 NNW 7 11 29.94 1014 10 16.09344 0 0
1:35 pm 13:35 Partly Cloudy 70 21 45 7 40 40 NNW 10 17 29.94 1014 10 16.09344 0 0
1:55 pm 13:55 Partly Cloudy 72 22 45 7 38 38 NNW 12 19 29.94 1014 10 16.09344 0 0
2:15 pm 14:15 Partly Cloudy 72 22 43 6 36 36 NNW 15 24 29.94 1014 10 16.09344 0 0
2:35 pm 14:35 Partly Cloudy 72 22 45 7 38 38 WNW 10 17 29.94 1014 10 16.09344 0 0
2:55 pm 14:55 Partly Cloudy 73 23 45 7 36 36 WNW 14 22 29.94 1014 10 16.09344 0 0
3:15 pm 15:15 Partly Cloudy 73 23 46 8 38 38 WNW 10 17 29.91 1013 10 16.09344 0 0
3:35 pm 15:35 Mostly Cloudy 72 22 43 6 36 36 WNW 13 20 29.91 1013 10 16.09344 0 0
3:55 pm 15:55 Cloudy 70 21 43 6 38 38 NW 10 17 29.91 1013 10 16.09344 0 0
4:15 pm 16:15 Cloudy 73 23 45 7 36 36 WNW 16 26 29.91 1013 10 16.09344 0 0
4:35 pm 16:35 Cloudy 72 22 45 7 38 38 NW 17 28 29.91 1013 10 16.09344 0 0
4:55 pm 16:55 Cloudy 72 22 45 7 38 38 WNW 13 20 29.91 1013 10 16.09344 0 0
5:15 pm 17:15 Mostly Cloudy 72 22 45 7 38 38 NW 8 13 29.91 1013 10 16.09344 0 0
5:35 pm 17:35 Partly Cloudy 72 22 43 6 36 36 WNW 13 20 29.91 1013 10 16.09344 0 0
5:55 pm 17:55 Partly Cloudy 72 22 43 6 36 36 WNW 13 20 29.91 1013 10 16.09344 0 0
6:15 pm 18:15 Sunny 72 22 43 6 36 36 WNW 13 20 29.91 1013 10 16.09344 0 0
6:35 pm 18:35 Sunny 72 22 43 6 36 36 NW 14 22 29.91 1013 10 16.09344 0 0
6:55 pm 18:55 Sunny 70 21 43 6 38 38 WNW 9 15 29.91 1013 10 16.09344 0 0
7:15 pm 19:15 Sunny 70 21 43 6 38 38 WNW 8 13 29.91 1013 10 16.09344 0 0
7:35 pm 19:35 Sunny 66 19 45 7 46 46 W 6 9 29.91 1013 10 16.09344 0 0
7:55 pm 19:55 Sunny 64 18 45 7 49 49 W 6 9 29.91 1013 10 16.09344 0 0
8:15 pm 20:15 Sunny 63 17 46 8 56 56 W 6 9 29.91 1013 10 16.09344 0 0
8:35 pm 20:35 Clear 63 17 46 8 56 56 W 5 7 29.94 1014 10 16.09344 0 0
8:55 pm 20:55 Clear 61 16 46 8 59 59 SW 3 6 29.94 1014 10 16.09344 0 0
9:15 pm 21:15 Partly Cloudy 61 16 45 7 55 55 SW 6 9 29.94 1014 10 16.09344 0 0
9:35 pm 21:35 Mostly Cloudy 61 16 46 8 59 59 SW 5 7 29.94 1014 10 16.09344 0 0
9:55 pm 21:55 Cloudy 57 14 50 10 77 77 WSW 6 9 29.94 1014 10 16.09344 0 0
10:15 pm 22:15 Cloudy 59 15 48 9 68 68 W 7 11 29.94 1014 10 16.09344 0 0
10:35 pm 22:35 Cloudy 59 15 48 9 68 68 W 6 9 29.94 1014 10 16.09344 0 0
10:55 pm 22:55 Cloudy 61 16 48 9 63 63 W 5 7 29.94 1014 10 16.09344 0 0
11:10 pm 23:10 Cloudy 59 15 48 9 68 68 W 6 9 29.94 1014 10 16.09344 0 0
11:30 pm 23:30 Cloudy 61 16 48 9 63 63 WSW 5 7 29.94 1014 10 16.09344 0 0
11:55 pm 23:55 Partly Cloudy 59 15 46 8 63 63 WSW 3 6 29.94 1014 10 16.09344 0 0

Powered by AerisWeather